Hourly Data Report for July 30, 2003

TORONTO CITY
ONTARIO

43°40'00.000" N
79°24'00.000" W
112.50 m
6158355
71508
XTO

Download Data

Hourly Data (July 2003)
Hourly Data Report for July 30, 2003
TIME
LST
Temp Definition
°C
Dew Point Definition
°C
Rel Hum Definition
%
Precip. Amount Definition
mm

Wind Dir Definition
10's deg

Wind Spd Definition
km/h
Visibility Definition
km
Stn Press Definition
kPa
Hmdx Definition


Wind Chill Definition


Weather Definition


00:00 18.5 14.7 79   LegendMM LegendMM LegendMM 100.27     LegendNANA
01:00 18.0 14.5 80   LegendMM LegendMM LegendMM 100.30     LegendNANA
02:00 17.5 14.2 81   LegendMM LegendMM LegendMM 100.34     LegendNANA
03:00 17.2 13.3 78   LegendMM LegendMM LegendMM 100.39     LegendNANA
04:00 17.0 12.8 76   LegendMM LegendMM LegendMM 100.42     LegendNANA
05:00 16.3 13.2 82   LegendMM LegendMM LegendMM 100.44     LegendNANA
06:00 16.9 13.6 81   LegendMM LegendMM LegendMM 100.49     LegendNANA
07:00 19.1 13.7 71   LegendMM LegendMM LegendMM 100.53     LegendNANA
08:00 22.0 14.0 60   LegendMM LegendMM LegendMM 100.56 25   LegendNANA
09:00 22.7 14.5 60   LegendMM LegendMM LegendMM 100.57 26   LegendNANA
10:00 23.7 14.1 55   LegendMM LegendMM LegendMM 100.60 27   LegendNANA
11:00 25.2 14.4 51   LegendMM LegendMM LegendMM 100.63 29   LegendNANA
12:00 25.9 13.3 46   LegendMM LegendMM LegendMM 100.63 29   LegendNANA
13:00 27.3 13.4 42   LegendMM LegendMM LegendMM 100.60 30   LegendNANA
14:00 28.2 13.6 41   LegendMM LegendMM LegendMM 100.58 31   LegendNANA
15:00 28.5 13.9 41   LegendMM LegendMM LegendMM 100.53 32   LegendNANA
16:00 28.4 14.1 42   LegendMM LegendMM LegendMM 100.52 32   LegendNANA
17:00 26.7 13.7 45   LegendMM LegendMM LegendMM 100.51 30   LegendNANA
18:00 25.4 12.6 45   LegendMM LegendMM LegendMM 100.50 28   LegendNANA
19:00 23.0 13.5 55   LegendMM LegendMM LegendMM 100.51 26   LegendNANA
20:00 21.8 14.1 62   LegendMM LegendMM LegendMM 100.51 25   LegendNANA
21:00 22.1 13.5 58   LegendMM LegendMM LegendMM 100.54 25   LegendNANA
22:00 21.7 13.4 59   LegendMM LegendMM LegendMM 100.55 25   LegendNANA
23:00 21.9 12.9 57   LegendMM LegendMM LegendMM 100.54 25   LegendNANA

Notes on Data Quality.

Legend

  • E = Estimated
  • M = Missing
  • NA = Not Available*
  • [empty] = Indicates an unobserved value
Date modified: